| time (UTC) | temp C | wind direction | speed KPH | gust KPH | rain 1hr cm | rain 24hr cm | rain mn cm | humidity % | barometer mb |
| 20260505014557 | 23 | 115 | 4.8 | 14.5 | 0.00 | 1.24 | 1.24 | 83 | 1015.0 |
| 20260505014103 | 23 | 135 | 3.2 | 14.5 | 0.00 | 1.24 | 1.24 | 84 | 1015.0 |
| 20260505013559 | 23 | 78 | 3.2 | 12.9 | 0.00 | 1.24 | 1.24 | 84 | 1015.1 |
| 20260505013102 | 23 | 43 | 3.2 | 9.7 | 0.00 | 1.24 | 1.24 | 84 | 1015.1 |
| 20260505012557 | 23 | 74 | 1.6 | 11.3 | 0.00 | 1.24 | 1.24 | 84 | 1015.0 |
| 20260505012057 | 23 | 104 | 3.2 | 16.1 | 0.00 | 1.24 | 1.24 | 84 | 1015.0 |
| 20260505011600 | 23 | 133 | 6.4 | 16.1 | 0.00 | 1.24 | 1.24 | 84 | 1015.0 |
| 20260505011100 | 23 | 70 | 3.2 | 16.1 | 0.00 | 1.24 | 1.24 | 85 | 1015.0 |
| 20260505010557 | 23 | 53 | 1.6 | 16.1 | 0.00 | 1.24 | 1.24 | 85 | 1015.0 |
| 20260505010057 | 23 | 44 | 4.8 | 16.1 | 0.00 | 1.24 | 1.24 | 84 | 1015.0 |
| 20260505005557 | 23 | 111 | 3.2 | 11.3 | 0.00 | 1.30 | 1.24 | 84 | 1014.9 |
| 20260505005057 | 23 | 63 | 0.0 | 12.9 | 0.00 | 1.30 | 1.24 | 84 | 1014.8 |
| 20260505004559 | 23 | 121 | 4.8 | 14.5 | 0.00 | 1.30 | 1.24 | 85 | 1014.8 |
| 20260505004057 | 23 | 101 | 4.8 | 14.5 | 0.00 | 1.30 | 1.24 | 85 | 1014.7 |
| 20260505003557 | 23 | 131 | 1.6 | 11.3 | 0.00 | 1.30 | 1.24 | 85 | 1014.8 |
| 20260505003059 | 23 | 113 | 3.2 | 16.1 | 0.00 | 1.30 | 1.24 | 85 | 1014.7 |
| 20260505002557 | 23 | 95 | 6.4 | 16.1 | 0.00 | 1.30 | 1.24 | 85 | 1014.7 |
| 20260505002057 | 23 | 104 | 4.8 | 16.1 | 0.00 | 1.30 | 1.24 | 85 | 1014.6 |
| 20260505001600 | 23 | 89 | 4.8 | 16.1 | 0.00 | 1.30 | 1.24 | 86 | 1014.6 |
| 20260505001056 | 23 | 101 | 8.0 | 19.3 | 0.00 | 1.30 | 1.24 | 86 | 1014.7 |
| 20260505000558 | 23 | 88 | 6.4 | 19.3 | 0.00 | 1.30 | 1.24 | 86 | 1014.6 |
| 20260505000108 | 23 | 65 | 8.0 | 19.3 | 0.03 | 1.30 | 1.24 | 86 | 1014.6 |
| 20260504235601 | 23 | 89 | 4.8 | 17.7 | 0.03 | 1.45 | 1.24 | 86 | 1014.5 |
| 20260504235100 | 23 | 127 | 9.7 | 17.7 | 0.03 | 1.45 | 1.24 | 86 | 1014.5 |
| 20260504234632 | 23 | 69 | 6.4 | 19.3 | 0.03 | 1.45 | 1.24 | 86 | 1014.5 |
| 20260504234059 | 23 | 142 | 6.4 | 19.3 | 0.03 | 1.45 | 1.24 | 87 | 1014.4 |
| 20260504233600 | 23 | 125 | 8.0 | 19.3 | 0.03 | 1.45 | 1.24 | 87 | 1014.4 |
| 20260504233058 | 23 | 54 | 4.8 | 17.7 | 0.03 | 1.45 | 1.24 | 87 | 1014.2 |
| 20260504232601 | 23 | 104 | 8.0 | 17.7 | 0.03 | 1.45 | 1.24 | 87 | 1014.0 |
| 20260504232057 | 23 | 108 | 6.4 | 16.1 | 0.03 | 1.45 | 1.24 | 87 | 1014.0 |
| 20260504231605 | 23 | 113 | 6.4 | 16.1 | 0.03 | 1.45 | 1.24 | 86 | 1013.9 |
| 20260504231057 | 23 | 24 | 6.4 | 16.1 | 0.03 | 1.45 | 1.24 | 87 | 1013.9 |
| 20260504230600 | 23 | 19 | 4.8 | 14.5 | 0.03 | 1.45 | 1.24 | 86 | 1014.0 |
| 20260504230100 | 23 | 66 | 3.2 | 12.9 | 0.00 | 1.42 | 1.22 | 86 | 1014.1 |
| 20260504225557 | 23 | 84 | 3.2 | 17.7 | 0.00 | 1.47 | 1.22 | 86 | 1014.2 |
| 20260504225102 | 23 | 68 | 4.8 | 17.7 | 0.00 | 1.47 | 1.22 | 86 | 1014.2 |
| 20260504224602 | 23 | 118 | 4.8 | 17.7 | 0.00 | 1.47 | 1.22 | 86 | 1014.2 |
| 20260504224102 | 23 | 113 | 6.4 | 17.7 | 0.00 | 1.47 | 1.22 | 86 | 1014.1 |
| 20260504223558 | 23 | 165 | 3.2 | 17.7 | 0.00 | 1.47 | 1.22 | 86 | 1014.1 |
| 20260504223058 | 23 | 61 | 4.8 | 17.7 | 0.00 | 1.47 | 1.22 | 86 | 1014.1 |
| 20260504222602 | 23 | 111 | 8.0 | 17.7 | 0.00 | 1.47 | 1.22 | 85 | 1014.0 |
| 20260504222057 | 23 | 94 | 3.2 | 16.1 | 0.00 | 1.47 | 1.22 | 85 | 1014.0 |
| 20260504221609 | 23 | 88 | 4.8 | 17.7 | 0.00 | 1.47 | 1.22 | 85 | 1014.0 |
| 20260504221057 | 23 | 108 | 4.8 | 17.7 | 0.00 | 1.47 | 1.22 | 85 | 1014.0 |
| 20260504220557 | 23 | 107 | 6.4 | 17.7 | 0.00 | 1.47 | 1.22 | 85 | 1013.9 |
| 20260504220059 | 23 | 53 | 6.4 | 17.7 | 0.00 | 1.47 | 1.22 | 85 | 1014.0 |
| 20260504215557 | 23 | 58 | 3.2 | 17.7 | 0.00 | 1.47 | 1.22 | 84 | 1014.0 |
| 20260504215100 | 23 | 0 | 6.4 | 17.7 | 0.00 | 1.47 | 1.22 | 84 | 1013.9 |
| 20260504214558 | 24 | 113 | 8.0 | 17.7 | 0.00 | 1.47 | 1.22 | 84 | 1013.9 |
| 20260504214057 | 24 | 40 | 3.2 | 12.9 | 0.00 | 1.47 | 1.22 | 83 | 1013.9 |
| 20260504213601 | 24 | 86 | 3.2 | 14.5 | 0.00 | 1.47 | 1.22 | 83 | 1014.1 |
| 20260504213058 | 24 | 90 | 3.2 | 14.5 | 0.00 | 1.47 | 1.22 | 82 | 1014.0 |
| 20260504212557 | 24 | 57 | 3.2 | 16.1 | 0.00 | 1.47 | 1.22 | 82 | 1013.9 |
| 20260504212100 | 24 | 37 | 8.0 | 16.1 | 0.00 | 1.47 | 1.22 | 81 | 1014.0 |
| 20260504211558 | 24 | 78 | 3.2 | 14.5 | 0.00 | 1.47 | 1.22 | 81 | 1014.1 |
| 20260504211058 | 24 | 42 | 6.4 | 24.1 | 0.00 | 1.47 | 1.22 | 80 | 1014.0 |
| 20260504210559 | 24 | 26 | 4.8 | 24.1 | 0.00 | 1.47 | 1.22 | 81 | 1014.2 |
| 20260504210110 | 24 | 81 | 9.7 | 19.3 | 0.00 | 1.47 | 1.22 | 80 | 1014.3 |
| 20260504205557 | 24 | 130 | 8.0 | 19.3 | 0.00 | 1.47 | 1.22 | 80 | 1014.2 |
| 20260504205058 | 24 | 78 | 6.4 | 19.3 | 0.00 | 1.47 | 1.22 | 81 | 1014.2 |
| 20260504204605 | 24 | 130 | 8.0 | 17.7 | 0.00 | 1.47 | 1.22 | 81 | 1014.2 |
| 20260504204100 | 24 | 116 | 6.4 | 16.1 | 0.00 | 1.47 | 1.22 | 82 | 1014.1 |
| 20260504203557 | 24 | 72 | 6.4 | 16.1 | 0.00 | 1.47 | 1.22 | 82 | 1014.3 |
| 20260504203104 | 24 | 113 | 6.4 | 16.1 | 0.00 | 1.47 | 1.22 | 81 | 1014.4 |
| 20260504202557 | 24 | 86 | 4.8 | 17.7 | 0.00 | 1.47 | 1.22 | 81 | 1014.5 |
| 20260504202102 | 24 | 91 | 6.4 | 19.3 | 0.00 | 1.47 | 1.22 | 81 | 1014.6 |
| 20260504201614 | 25 | 99 | 4.8 | 19.3 | 0.00 | 1.47 | 1.22 | 81 | 1014.5 |
| 20260504201057 | 25 | 58 | 3.2 | 16.1 | 0.00 | 1.47 | 1.22 | 80 | 1014.6 |
| 20260504200600 | 25 | 57 | 4.8 | 17.7 | 0.00 | 1.47 | 1.22 | 80 | 1014.6 |
| 20260504195559 | 25 | 0 | 9.7 | 20.9 | 0.00 | 1.47 | 1.22 | 79 | 1014.6 |
| 20260504195058 | 25 | 101 | 6.4 | 19.3 | 0.00 | 1.47 | 1.22 | 80 | 1014.5 |
| 20260504194610 | 25 | 88 | 8.0 | 22.5 | 0.00 | 1.47 | 1.22 | 81 | 1014.6 |
| 20260504194100 | 24 | 81 | 9.7 | 22.5 | 0.00 | 1.47 | 1.22 | 81 | 1014.6 |
| 20260504193559 | 24 | 95 | 8.0 | 22.5 | 0.00 | 1.47 | 1.22 | 82 | 1014.7 |
| 20260504193101 | 24 | 67 | 4.8 | 19.3 | 0.00 | 1.47 | 1.22 | 84 | 1014.8 |
| 20260504192604 | 24 | 55 | 8.0 | 19.3 | 0.00 | 1.47 | 1.22 | 85 | 1014.7 |
| 20260504192057 | 23 | 110 | 8.0 | 20.9 | 0.00 | 1.47 | 1.22 | 86 | 1014.7 |
| 20260504191558 | 23 | 107 | 6.4 | 20.9 | 0.00 | 1.47 | 1.22 | 86 | 1014.7 |
| 20260504191057 | 23 | 108 | 6.4 | 20.9 | 0.00 | 1.47 | 1.22 | 87 | 1014.9 |
| 20260504190600 | 23 | 61 | 9.7 | 19.3 | 0.03 | 1.47 | 1.22 | 87 | 1015.2 |
| 20260504190130 | 23 | 42 | 6.4 | 17.7 | 0.03 | 1.47 | 1.22 | 88 | 1015.1 |
| 20260504185556 | 23 | 108 | 6.4 | 17.7 | 0.03 | 1.47 | 1.22 | 88 | 1015.2 |
| 20260504185100 | 23 | 82 | 3.2 | 16.1 | 0.05 | 1.47 | 1.22 | 88 | 1015.4 |
| 20260504184559 | 23 | 128 | 6.4 | 16.1 | 0.05 | 1.47 | 1.22 | 88 | 1015.4 |
| 20260504184102 | 23 | 88 | 8.0 | 16.1 | 0.05 | 1.47 | 1.22 | 88 | 1015.5 |
| 20260504183600 | 23 | 53 | 8.0 | 14.5 | 0.05 | 1.47 | 1.22 | 87 | 1015.5 |
| 20260504183058 | 23 | 117 | 6.4 | 19.3 | 0.05 | 1.47 | 1.22 | 88 | 1015.6 |
| 20260504182601 | 23 | 83 | 9.7 | 19.3 | 0.05 | 1.47 | 1.22 | 87 | 1015.8 |
| 20260504182059 | 23 | 39 | 6.4 | 16.1 | 0.13 | 1.47 | 1.22 | 87 | 1015.8 |
| 20260504181600 | 23 | 120 | 6.4 | 16.1 | 0.18 | 1.47 | 1.22 | 87 | 1015.9 |
| 20260504181059 | 23 | 57 | 6.4 | 17.7 | 0.18 | 1.47 | 1.22 | 87 | 1016.0 |
| 20260504180600 | 23 | 130 | 6.4 | 17.7 | 0.15 | 1.45 | 1.19 | 87 | 1016.0 |
| 20260504180155 | 23 | 107 | 4.8 | 22.5 | 0.15 | 1.45 | 1.19 | 87 | 1016.0 |
| 20260504175559 | 23 | 90 | 3.2 | 22.5 | 0.15 | 1.45 | 1.19 | 87 | 1016.2 |
| 20260504175101 | 23 | 121 | 4.8 | 11.3 | 0.13 | 1.42 | 1.17 | 87 | 1016.1 |
| 20260504174557 | 23 | 22 | 4.8 | 11.3 | 0.13 | 1.42 | 1.17 | 87 | 1016.2 |
| 20260504174100 | 23 | 101 | 1.6 | 20.9 | 0.15 | 1.42 | 1.17 | 87 | 1016.2 |
| 20260504173559 | 22 | 51 | 4.8 | 22.5 | 0.15 | 1.42 | 1.17 | 87 | 1016.1 |
| 20260504173125 | 22 | 55 | 8.0 | 22.5 | 0.18 | 1.42 | 1.17 | 86 | 1016.1 |
| 20260504172556 | 23 | 63 | 4.8 | 20.9 | 0.18 | 1.42 | 1.17 | 86 | 1016.1 |
| 20260504172059 | 23 | 44 | 9.7 | 17.7 | 0.10 | 1.32 | 1.09 | 86 | 1016.2 |
| 20260504171557 | 23 | 43 | 3.2 | 11.3 | 0.08 | 1.30 | 1.04 | 87 | 1016.1 |
| 20260504171100 | 23 | 90 | 3.2 | 11.3 | 0.13 | 1.30 | 1.04 | 87 | 1015.9 |
| 20260504170559 | 23 | 114 | 4.8 | 11.3 | 0.18 | 1.30 | 1.04 | 87 | 1016.0 |
| 20260504151058 | 23 | 49 | 1.6 | 14.5 | 0.69 | 0.99 | 0.74 | 85 | 1016.3 |
| 20260504150600 | 23 | 81 | 3.2 | 14.5 | 0.64 | 0.94 | 0.69 | 84 | 1016.3 |
| 20260504141058 | 25 | 36 | 3.2 | 9.7 | 0.00 | 0.30 | 0.05 | 81 | 1015.9 |
| 20260504140557 | 24 | 37 | 1.6 | 12.9 | 0.00 | 0.30 | 0.05 | 82 | 1015.8 |
| 20260504140119 | 24 | 17 | 1.6 | 12.9 | 0.00 | 0.30 | 0.05 | 83 | 1015.9 |
| 20260504130557 | 23 | 333 | 3.2 | 12.9 | 0.00 | 0.36 | 0.05 | 89 | 1015.4 |
| 20260504120113 | 22 | 0 | 0.0 | 0.0 | 0.00 | 0.69 | 0.05 | 90 | 1014.6 |
| 20260504110601 | 22 | 0 | 0.0 | 0.0 | 0.00 | 1.91 | 0.05 | 90 | 1014.3 |
| 20260504100559 | 22 | 0 | 0.0 | 3.2 | 0.00 | 2.03 | 0.05 | 89 | 1014.3 |
| 20260504081558 | 23 | 0 | 0.0 | 0.0 | 0.05 | 2.03 | 0.05 | 88 | 1013.3 |
| 20260504081057 | 23 | 0 | 0.0 | 0.0 | 0.05 | 2.03 | 0.05 | 88 | 1013.3 |
| 20260504080557 | 23 | 0 | 0.0 | 1.6 | 0.05 | 2.03 | 0.05 | 88 | 1013.0 |
| 20260504050558 | 23 | 0 | 0.0 | 0.0 | 0.00 | 1.98 | 0.00 | 86 | 1015.6 |
| 20260504050141 | 23 | 0 | 0.0 | 0.0 | 0.00 | 1.98 | 0.00 | 86 | 1015.6 |
| 20260504045557 | 23 | 0 | 0.0 | 0.0 | 0.00 | 1.98 | 0.00 | 86 | 1015.7 |
| 20260504045058 | 23 | 0 | 0.0 | 0.0 | 0.00 | 1.98 | 0.00 | 86 | 1015.7 |
| 20260504044607 | 23 | 0 | 0.0 | 0.0 | 0.00 | 1.98 | 0.00 | 86 | 1015.7 |
| 20260504044059 | 23 | 0 | 0.0 | 0.0 | 0.00 | 1.98 | 0.00 | 86 | 1015.4 |
| 20260504043600 | 23 | 0 | 0.0 | 0.0 | 0.00 | 1.98 | 0.00 | 86 | 1015.4 |
| 20260504043102 | 23 | 0 | 0.0 | 0.0 | 0.00 | 1.98 | 0.00 | 86 | 1015.3 |
| 20260504042558 | 23 | 0 | 0.0 | 4.8 | 0.00 | 1.98 | 0.00 | 86 | 1015.3 |
| 20260504042057 | 23 | 0 | 0.0 | 6.4 | 0.00 | 1.98 | 0.00 | 86 | 1015.3 |
| 20260504041557 | 23 | 0 | 1.6 | 6.4 | 0.00 | 1.98 | 0.00 | 86 | 1015.2 |
| 20260504041058 | 23 | 74 | 0.0 | 4.8 | 0.00 | 1.98 | 0.00 | 87 | 1015.4 |
| 20260504040558 | 23 | 0 | 0.0 | 4.8 | 0.00 | 1.98 | 0.00 | 87 | 1015.5 |
| 20260504040108 | 23 | 0 | 0.0 | 4.8 | 0.00 | 1.98 | 0.00 | 87 | 1015.6 |
| 20260504035558 | 23 | 0 | 0.0 | 8.0 | 0.00 | 1.98 | 1.98 | 87 | 1015.6 |
| 20260504035101 | 23 | 22 | 1.6 | 9.7 | 0.00 | 1.98 | 1.98 | 87 | 1015.6 |
| 20260504034600 | 23 | 0 | 0.0 | 9.7 | 0.00 | 1.98 | 1.98 | 87 | 1015.6 |
| 20260504034059 | 23 | 0 | 1.6 | 8.0 | 0.00 | 1.98 | 1.98 | 87 | 1015.7 |
| 20260504033556 | 23 | 80 | 1.6 | 9.7 | 0.00 | 1.98 | 1.98 | 87 | 1015.7 |
| 20260504033058 | 23 | 0 | 3.2 | 9.7 | 0.00 | 1.98 | 1.98 | 87 | 1015.7 |
| 20260504032559 | 23 | 60 | 0.0 | 6.4 | 0.00 | 1.98 | 1.98 | 87 | 1015.9 |
| 20260504032103 | 23 | 0 | 0.0 | 6.4 | 0.00 | 1.98 | 1.98 | 87 | 1015.9 |
| 20260504031623 | 23 | 0 | 0.0 | 6.4 | 0.00 | 1.98 | 1.98 | 88 | 1015.7 |
| 20260504031100 | 23 | 0 | 0.0 | 4.8 | 0.00 | 1.98 | 1.98 | 88 | 1015.8 |
| 20260504030559 | 23 | 0 | 0.0 | 6.4 | 0.00 | 1.98 | 1.98 | 88 | 1015.8 |
| 20260504030100 | 23 | 0 | 0.0 | 6.4 | 0.00 | 1.98 | 1.98 | 87 | 1015.9 |
| 20260504025559 | 23 | 352 | 1.6 | 6.4 | 0.00 | 1.98 | 1.98 | 88 | 1015.9 |
| 20260504025057 | 23 | 59 | 0.0 | 0.0 | 0.00 | 1.98 | 1.98 | 88 | 1015.8 |
| 20260504024601 | 23 | 0 | 0.0 | 6.4 | 0.00 | 1.98 | 1.98 | 88 | 1015.8 |
| 20260504024059 | 23 | 0 | 0.0 | 8.0 | 0.00 | 1.98 | 1.98 | 88 | 1015.8 |
| 20260504023558 | 23 | 0 | 0.0 | 8.0 | 0.00 | 1.98 | 1.98 | 88 | 1015.7 |
| 20260504023059 | 23 | 34 | 1.6 | 8.0 | 0.00 | 1.98 | 1.98 | 88 | 1015.7 |
| 20260504022559 | 23 | 9 | 1.6 | 9.7 | 0.00 | 1.98 | 1.98 | 88 | 1015.7 |
| 20260504022101 | 23 | 11 | 3.2 | 11.3 | 0.00 | 1.98 | 1.98 | 88 | 1015.7 |
| 20260504021609 | 23 | 360 | 1.6 | 11.3 | 0.00 | 1.98 | 1.98 | 88 | 1015.6 |
| 20260504021101 | 23 | 0 | 0.0 | 6.4 | 0.00 | 1.98 | 1.98 | 88 | 1015.7 |
| 20260504020601 | 23 | 0 | 0.0 | 6.4 | 0.00 | 1.98 | 1.98 | 88 | 1015.7 |
| 20260504020107 | 23 | 0 | 1.6 | 6.4 | 0.00 | 1.98 | 1.98 | 88 | 1015.7 |
| 20260504015600 | 23 | 0 | 0.0 | 6.4 | 0.00 | 1.98 | 1.98 | 88 | 1015.7 |
| 20260504015059 | 23 | 0 | 1.6 | 6.4 | 0.00 | 1.98 | 1.98 | 88 | 1015.6 |